Regional Weather Roundup
Issued by NWS

Home | Current Version | Previous Version | Text Only | Print | Product List | Glossary On
Versions: 1 2 3 4 5 6 7 8 9 10 11 12 13 14 15 16 17 18 19 20 21 22 23 24 25 26 27 28 29 30 31 32 33 34 35 36 37 38 39 40 41 42 43 44 45 46 47 48 49 50
000
ASUS43 KBIS 041210
RWRND

NORTH DAKOTA REGIONAL WEATHER ROUNDUP
NATIONAL WEATHER SERVICE BISMARCK ND
700 AM CDT SAT JUL 04 2015

NOTE: "FAIR" INDICATES FEW OR NO CLOUDS BELOW 12,000 FEET WITH NO
SIGNIFICANT WEATHER AND/OR OBSTRUCTIONS TO VISIBILITY.


NDZ001>003-009>011-017-041300-
NORTHWEST NORTH DAKOTA

CITY           SKY/WX    TMP DP  RH WIND       PRES   REMARKS
WILLISTON      CLEAR     65  61  87 S3        29.77F FOG
6HR MIN TEMP:  60; 6HR MAX TEMP:  74;

MINOT          PTCLDY    68  62  81 S5        29.79R HAZE
MINOT AFB      CLEAR     65  65 100 S8        29.78S FOG
$$

NDZ018>021-031>035-040>046-041300-
SOUTHWEST NORTH DAKOTA

CITY           SKY/WX    TMP DP  RH WIND       PRES   REMARKS
BISMARCK       CLEAR     64  63  96 E5        29.85F FOG
6HR MIN TEMP:  63; 6HR MAX TEMP:  67;

DICKINSON      CLEAR     63  59  87 S10       29.82S FOG
GARRISON         N/A     64  62  93 S3        29.82F
6HR MIN TEMP:  64; 6HR MAX TEMP:  69;

HETTINGER ARPT PTCLDY    62  58  86 E3        29.86S FOG
$$

NDZ004>008-012>016-024-026-027-054-041300-
NORTHEAST NORTH DAKOTA

CITY           SKY/WX    TMP DP  RH WIND       PRES   REMARKS
GRAND FORKS    CLOUDY    61  59  93 S5        29.87S FOG
GRND FRKS AFB  SUNNY     63  60  90 S5        29.87S FOG
DEVILS LAKE    SUNNY     66  61  82 S7        29.84S
$$

NDZ022-023-025-028>030-036>039-047>053-041300-
SOUTHEAST NORTH DAKOTA

CITY           SKY/WX    TMP DP  RH WIND       PRES   REMARKS
FARGO          SUNNY     67  61  81 S8        29.90R HAZE
6HR MIN TEMP:  62; 6HR MAX TEMP:  67;

JAMESTOWN      CLOUDY    66  63  90 S8        29.88S FOG
$$



USA.gov is the U.S. government's official web portal to all federal, state and local government web resources and services.